Regional Weather Roundup
Issued by NWS

Home | Current Version | Previous Version | Text Only | Print | Product List | Glossary Off
Versions: 1 2 3 4 5 6 7 8 9 10 11 12 13 14 15 16 17 18 19 20 21 22 23 24 25 26 27 28 29 30 31 32 33 34 35 36 37 38 39 40 41 42 43 44 45 46 47 48 49 50

000
ASUS45 KABQ 171601
RWRNM
NEW MEXICO REGIONAL WEATHER ROUNDUP
NATIONAL WEATHER SERVICE ALBUQUERQUE NM
900 AM MST TUE JAN 17 2017

NOTE: "FAIR" MEANS FEW OR NO CLOUDS BELOW 12,000 FEET AGL WITH NO
       SIGNIFICANT WEATHER OR OBSTRUCTIONS TO VISION.

      THIS PRODUCT IS RELEASED AS TWO VERSIONS.  ONE VERSION NEAR
      THE TOP OF THE HOUR CONTAINING PRELIMINARY DATA FROM ALBUQUERQUE
      AND OTHER STATIONS.  A FINAL VERSION WITH ADDITIONAL DATA IS
      ISSUED ABOUT 10 MINUTES AFTER THE HOUR.

NMZ501-503-504-510>518-171700-
NORTHWEST PLATEAU/NORTHCENTRAL MOUNTAINS

CITY           SKY/WX    TMP DP  RH WIND       PRES   REMARKS
FARMINGTON     CLOUDY    34  33  96 E3        30.16R FOG
LOS ALAMOS     FAIR      32  32 100 CALM      30.16S
SANTA FE       CLOUDY    34  29  82 SE5       30.16R WCI  30
TAOS           CLOUDY    32  25  74 CALM      30.17R
ANGEL FIRE     FAIR      30  26  85 W10       30.15R WCI  21

$$
NMZ402-403-502-505>509-171700-
WESTCENTRAL MOUNTAINS/SOUTHWEST MOUNTAINS

CITY           SKY/WX    TMP DP  RH WIND       PRES   REMARKS
GALLUP         CLOUDY    33  30  88 E8        30.15R WCI  26
GRANTS         LGT SNOW  32  32 100 NW5       30.17R VSB 1   WCI  27
SILVER CITY    CLOUDY    36  33  90 N5        30.11R WCI  32

$$
NMZ407-409-411-412-171700-
SOUTHERN DESERTS

CITY           SKY/WX    TMP DP  RH WIND       PRES   REMARKS
DEMING         CLOUDY    44  37  76 E8        30.11R
LAS CRUCES     PTSUNNY   42  39  88 NW6       30.12R
HOLLOMAN AFB   CLOUDY    40  38  94 E5        30.16R
ALAMOGORDO     PTSUNNY   41  36  81 CALM      30.14R
T OR C         FAIR      40  36  86 N10       30.13R WCI  33

$$
NMZ519>523-171700-
CENTRAL VALLEYS/CENTRAL HIGHLANDS

CITY           SKY/WX    TMP DP  RH WIND       PRES   REMARKS
ALBUQUERQUE    FAIR      39  36  89 NW7       30.16R WCI  34
DOUBLE EAGLE   PTSUNNY   37  36  93 N8        30.16R WCI  31
MORIARTY ARPT  FAIR      35  32  88 CALM      30.17S
CLINES CORNERS FOG       27  26  96 SW7       30.16R VSB 1/2 WCI  19
BELEN          FAIR      41  36  82 N6        30.16R
SOCORRO        CLOUDY    42  36  78 N5        30.16R

$$
NMZ524>526-539-540-171700-
SOUTHCENTRAL MOUNTAINS

CITY           SKY/WX    TMP DP  RH WIND       PRES   REMARKS
RUIDOSO        FOG       30  30 100 SE7       30.20R VSB 3/4 WCI  23

$$
NMZ527>531-171700-
NORTHEAST HIGHLANDS/NORTHEAST PLAINS

CITY           SKY/WX    TMP DP  RH WIND       PRES   REMARKS
LAS VEGAS      FOG       23  22  96 S7        30.14R VSB 1/2 WCI  15
RATON          CLOUDY    22  19  89 NE8       30.12R WCI  12
CLAYTON        FAIR      32  29  88 W7        30.13S WCI  26

$$
NMZ532>537-171700-
EASTCENTRAL PLAINS

CITY           SKY/WX    TMP DP  RH WIND       PRES   REMARKS
TUCUMCARI      FAIR      38  34  85 S6        30.19R WCI  33
CANNON AFB     CLOUDY    34  34 100 NE9       30.19S WCI  27
CLOVIS AIRPORT PTSUNNY   36  30  80 N5        30.20R WCI  32

$$
NMZ028-029-538-171700-
SOUTHEAST PLAINS

CITY           SKY/WX    TMP DP  RH WIND       PRES   REMARKS
ROSWELL        CLOUDY    43  32  65 N3        30.21R
ARTESIA        CLOUDY    41  36  81 N7        30.22R
CARLSBAD       CLOUDY    41  36  82 N7        30.20R
HOBBS          PTSUNNY   36  36 100 N10       30.21R WCI  28


$$




USA.gov is the U.S. government's official web portal to all federal, state and local government web resources and services.